Home   Weather   Dayton   Past weeks

Flag for USA Past Weather in Dayton, Ohio, USA — Yesterday and Last 2 Weeks

Now
55 °F

Mostly cloudy.


Feels Like: 51 °F
Forecast: 44 / 57 °F
Wind: 17 mph from Southwest

Location: Dayton / Wright-Patterson Air Force Base

Current Time: Jan 20, 2017 at 11:11:27 am

Latest Report: Jan 20, 2017 at 10:32 am


Visibility: 10 mi

Pressure: 29.70 "Hg

Humidity: 100%

Dew Point: 55 °F

Location of DaytonLocation

Past Weather in Dayton — Graph

°F

Dayton Temperature Yesterday

Maximum temperature yesterday: 46 °F (at 3:58 pm)
Minimum temperature yesterday: 37 °F (at 12:28 am)
Average temperature yesterday: 41 °F

High & Low Weather Summary for the Past Weeks

 TemperatureHumidityPressure
High65 °F (Jan 12, 10:58 am)100% (Jan 10, 8:18 pm)30.76 "Hg (Jan 10, 8:18 pm)
Low1 °F (Jan 7, 8:58 am)48% (Jan 10, 2:52 am)29.61 "Hg (Jan 20, 6:08 am)
Average35 °F86%30.22 "Hg
* Reported Jan 5 12:28 pm — Jan 20 9:58 am, Dayton, Weather by CustomWeather, © 2017

Note: Actual official high and low records may vary slightly from our data, if they occured in-between our weather recording intervals... More about our weather records

Advertising

Dayton Weather History for the Previous 24 Hours

Scroll right to see more
 ConditionsComfort  
Time TempWeatherWind HumidityBarometerVisibility
9:58 am
Fri, Jan 20
54 °FLow clouds.15 mph100%29.69 "Hg10 mi
8:58 am52 °FLow clouds.16 mph100%29.66 "Hg10 mi
7:58 am47 °FDrizzle. Fog.6 mph100%29.64 "Hg5 mi
7:08 am46 °FLight rain. Mostly cloudy.5 mph100%29.62 "Hg10 mi
6:58 am46 °FLight rain. Mostly cloudy.No wind100%29.64 "Hg10 mi
6:08 am45 °FLight rain. Fog.7 mph100%29.61 "Hg5 mi
5:58 am45 °FLight rain. Fog.5 mph100%29.63 "Hg5 mi
4:58 am44 °FLight rain. Mostly cloudy.10 mph100%29.62 "Hg5 mi
3:58 am43 °FLight rain. Low clouds.7 mph100%29.63 "Hg9 mi
2:58 am43 °FLight rain. Mostly cloudy.13 mph100%29.66 "Hg8 mi
1:58 am43 °FLight rain. Low clouds.12 mph100%29.70 "Hg7 mi
12:58 am42 °FLight rain. Low clouds.12 mph100%29.74 "Hg7 mi
12:30 am43 °FLight rain. Fog.12 mph100%29.75 "Hg4 mi
12:08 am43 °FLight rain. Fog.8 mph100%29.76 "Hg4 mi
11:58 pm
Thu, Jan 19
43 °FLight rain. Fog.7 mph97%29.79 "Hg5 mi
11:08 pm43 °FLight rain. Mostly cloudy.9 mph93%29.79 "Hg10 mi
10:58 pm43 °FMostly cloudy.10 mph89%29.82 "Hg10 mi
9:58 pm43 °FMostly cloudy.10 mph89%29.85 "Hg10 mi
8:58 pm43 °FOvercast.7 mph89%29.87 "Hg10 mi
7:58 pm43 °FMostly cloudy.8 mph90%29.89 "Hg10 mi
6:58 pm44 °FMostly cloudy.7 mph88%29.92 "Hg10 mi
5:58 pm45 °FMostly cloudy.7 mph86%29.93 "Hg10 mi
4:58 pm46 °FMostly cloudy.8 mph83%29.95 "Hg10 mi
3:58 pm46 °FBroken clouds.7 mph81%29.95 "Hg10 mi
2:58 pm45 °FPartly sunny.8 mph81%29.95 "Hg10 mi
1:58 pm45 °FMostly cloudy.8 mph79%30.00 "Hg10 mi
12:58 pm44 °FMore clouds than sun.6 mph81%30.04 "Hg10 mi
11:58 am42 °FMostly cloudy.5 mph83%30.05 "Hg10 mi
Weather by CustomWeather, © 2017

See weather overviewHow to use our weather pages